Regional Weather Roundup
Issued by NWS Kansas City/Pleasant Hill, MO

Home | Current Version | Previous Version | Graphics & Text | Print | Product List | Glossary Off
Versions: 1 2 3 4 5 6 7 8 9 10 11 12 13 14 15 16 17 18 19 20 21 22 23 24 25 26 27

000
ASUS43 KEAX 261810
RWREAX

WEATHER ROUNDUP FOR EASTERN KANSAS AND NORTHWEST MISSOURI
NATIONAL WEATHER SERVICE KANSAS CITY/PLEASANT HILL MO
100 PM CDT THU APR 26 2018

KSZ040-057-103>105-MOZ028-029-037-043-261900-
...KANSAS CITY METROPOLITAN AREA...

CITY           SKY/WX    TMP DP  RH WIND       PRES   REMARKS
K.C. INTL      CLOUDY    62  43  49 VRB6      30.00F
6HR MIN TEMP:  40; 6HR MAX TEMP:  62;

K.C. DOWNTOWN  CLOUDY    63  45  51 SW7       30.00F
6HR MIN TEMP:  42; 6HR MAX TEMP:  63;

LEES SUMMIT    SUNNY     61  43  51 MISG      30.00F
6HR MIN TEMP:  41; 6HR MAX TEMP:  61;

OLATHE - IXD   MOSUNNY   60  47  61 W7        30.02F
6HR MIN TEMP:  40; 6HR MAX TEMP:  61;

OLATHE - OJC   CLOUDY    59  45  59 VRB5      30.00F
6HR MIN TEMP:  39; 6HR MAX TEMP:  59;

LAWRENCE       PTSUNNY   62  47  57 MISG      30.01F

$$

MOZ001>008-011>017-020>025-030>033-038>040-044>046-053-054-261900-
...NORTHERN AND CENTRAL MISSOURI...

CITY           SKY/WX    TMP DP  RH WIND       PRES   REMARKS
ST. JOSEPH     MOSUNNY   63  45  51 CALM      30.00F
6HR MIN TEMP:  32; 6HR MAX TEMP:  64;

MOSBY          CLOUDY    61  41  48 W6        30.00F
WARRENSBURG    CLOUDY    61  41  48 CALM      30.00F
WHITEMAN AFB   PTSUNNY   61  43  50 W3        29.95
6HR MIN TEMP:  41; 6HR MAX TEMP:  61;

CLINTON        CLOUDY    63  46  55 N7        30.01S
SEDALIA        CLOUDY    62  43  49 W6        30.00F
6HR MIN TEMP:  43; 6HR MAX TEMP:  63;

WARSAW         NOT AVBL
CHILLICOTHE      N/A     65  40  39 MISG      29.98F
6HR MIN TEMP:  35; 6HR MAX TEMP:  65;

KIRKSVILLE     MOSUNNY   67  37  33 VRB6G20   29.96F
6HR MIN TEMP:  40; 6HR MAX TEMP:  67;


$$

MOZ041-047>049-056>058-063>065-088>090-097-261900-
...EASTERN AND SOUTHERN MISSOURI...

CITY           SKY/WX    TMP DP  RH WIND       PRES   REMARKS
ST. LOUIS INTL MOSUNNY   67  40  37 MISG      29.95F
6HR MIN TEMP:  52; 6HR MAX TEMP:  67;

SPIRIT OF STL  MOSUNNY   67  43  41 N7        29.93F
COLUMBIA       MOSUNNY   65  43  44 VRB6      29.97F
JEFFERSON CITY MOSUNNY   64  44  48 W8        29.97F
ROLLA          MOSUNNY   63  45  51 N7        29.97F
OSAGE BEACH    CLOUDY    62  48  60 NW3       29.99F
SPRINGFIELD    CLOUDY    58  47  66 NW7       29.99F
BRANSON        CLOUDY    55  48  76 N7        30.01F
JOPLIN         PTSUNNY   55  48  77 N6        30.03F
WEST PLAINS    PTSUNNY   59  48  67 NW9       29.98F

$$

IAZ060-094-KSZ022-034>040-054-083-096-NEZ052-066-093-261900-
...KANSAS...SOUTHEAST NEBRASKA AND IOWA...

CITY           SKY/WX    TMP DP  RH WIND       PRES   REMARKS
TOPEKA         CLOUDY    62  45  53 NW9       30.00F
6HR MIN TEMP:  39; 6HR MAX TEMP:  63;

MANHATTAN      CLOUDY    62  42  47 W9        30.02F
EMPORIA        CLOUDY    60  45  57 CALM      30.01F
CHANUTE        PTSUNNY   61  47  59 N7        30.03S
WICHITA        MOSUNNY   63  43  48 VRB3      30.01F
OMAHA          PTSUNNY   66  40  38 W8G21     29.96S
LINCOLN        SUNNY     69  39  33 W14G24    29.99S
FALLS CITY     CLOUDY    61  42  49 SW6       29.99F
LAMONI         SUNNY     65  34  31 W10       29.96F
DES MOINES     CLOUDY    68  30  24 W9        29.93F

$$





USA.gov is the U.S. government's official web portal to all federal, state and local government web resources and services.